Wind_Speed
7 7 7 7 6 6 7 7 8 9 10 10 10 11 11 11 11 11 10 10 10 12 14 15 15 15 15 15 13 12 12 11 10 11 12 12 11 11 10 9 10 10 10 10 9 8 8 8 8 8 8 7 7 7 7 8 8 9 10 10 10 11 10 10 10 11 11 11 11 13 15 16 17 19 21 22 21 20 20 19 18 18 18 18 18 19 19 19
9 9 9 9 9 9 9 9 10 10 11 11 11 11 11 11 11 11 10 10 10 10 11 13 14 14 13 14 14 13 12 11 11 12 12 12 12 12 11 11 11 11 12 13 12 11 10 8 7 6 6 7 7 7 7 8 8 9 9 10 11 12 11 12 12 12 12 12 13 16 18 19 19 21 23 23 22 22 21 20 19 19 19 19 19 19 19 20
10 10 10 11 11 11 11 11 11 11 12 12 12 12 12 11 11 11 11 10 10 10 9 10 11 13 12 12 13 13 13 12 11 12 11 11 11 11 11 11 11 12 12 13 13 13 12 11 9 7 6 6 6 6 7 7 7 8 8 10 11 12 13 14 14 13 13 14 15 17 19 21 21 23 24 24 23 23 22 20 19 19 20 20 20 20 21 21
10 11 11 12 12 12 13 13 13 13 13 13 13 13 12 12 11 11 11 11 10 10 10 9 9 11 12 11 11 12 13 12 11 11 10 10 10 11 11 11 12 12 13 13 13 13 13 12 11 10 8 7 7 8 6 5 6 7 8 9 11 13 14 15 15 15 15 16 17 19 21 23 24 25 25 25 24 23 22 20 20 20 21 21 22 22 22 22
11 11 12 12 13 13 14 14 15 15 14 13 13 13 13 13 12 11 11 11 11 10 10 10 9 9 10 11 10 11 12 12 11 11 9 9 10 10 11 11 11 12 12 13 14 14 14 13 12 11 9 8 8 8 6 6 7 7 8 9 11 13 14 14 14 15 16 18 19 21 23 24 25 26 26 25 24 22 21 21 21 22 22 22 22 23 23 22
12 12 12 13 14 14 15 15 15 15 15 14 14 14 15 14 13 12 11 11 11 10 10 10 10 9 9 9 10 10 10 10 10 10 9 9 9 9 9 10 10 11 12 13 14 15 14 13 12 11 10 9 8 7 7 7 7 7 8 10 10 10 11 12 13 15 17 19 20 21 22 23 24 25 25 24 23 22 21 21 23 23 23 23 23 23 23 23
13 13 13 14 14 15 15 16 16 16 16 16 16 16 16 16 15 14 12 12 11 11 11 11 10 10 9 9 10 10 10 10 10 10 10 9 9 9 8 9 9 10 11 12 13 14 13 13 12 12 10 9 8 8 8 8 9 8 6 7 8 9 11 12 14 15 17 19 20 20 21 22 23 24 24 23 22 22 22 23 24 24 23 23 24 24 24 23
14 14 14 14 15 15 15 16 16 17 17 18 18 17 16 16 16 15 14 13 12 12 11 11 11 11 10 10 11 11 11 11 11 11 11 10 9 9 8 8 9 9 10 11 12 13 13 13 13 12 11 9 9 10 10 9 9 8 5 7 9 11 12 13 14 15 16 18 19 19 20 21 22 23 24 23 22 22 24 26 25 24 24 25 24 24 24 24
15 15 15 15 15 15 16 16 16 17 18 18 18 17 16 15 16 16 15 14 13 13 12 12 12 12 11 11 12 12 12 13 12 12 12 12 11 10 9 9 9 9 10 10 11 13 14 14 14 14 12 11 11 11 11 11 10 9 8 9 10 12 14 15 15 15 16 17 18 19 19 20 21 23 24 23 22 24 26 27 26 26 26 25 25 25 25 25
15 15 15 15 15 15 16 16 16 17 18 18 18 17 16 15 16 15 15 14 14 14 13 13 12 13 13 13 13 13 14 14 13 13 13 13 13 12 11 10 10 9 10 10 11 13 14 15 15 15 14 12 13 13 12 11 11 12 12 11 11 13 14 15 16 15 16 17 18 18 18 20 21 23 23 22 24 27 29 29 28 27 26 25 24 24 25 26
15 15 15 15 15 15 15 16 16 17 17 17 17 17 16 16 15 15 14 14 14 14 14 13 13 13 14 14 14 14 15 15 14 14 14 15 15 14 13 12 11 11 11 11 11 12 14 15 16 15 14 13 14 14 12 11 12 13 13 13 13 14 13 14 15 15 15 16 17 17 19 21 22 23 21 22 26 29 30 30 29 29 27 26 25 25 26 27
16 16 16 16 16 16 16 16 16 17 17 16 16 17 17 16 16 16 14 14 14 14 14 14 14 14 14 14 14 15 14 14 15 15 15 16 16 16 16 15 14 13 12 12 12 12 14 15 16 16 15 15 15 14 12 12 13 14 14 14 13 13 12 12 13 13 14 15 16 17 21 25 23 22 22 25 29 30 31 30 30 30 29 28 27 28 28 28
19 18 17 17 17 17 16 16 16 17 17 16 16 16 17 16 17 16 15 14 14 14 14 14 14 15 15 14 13 14 14 14 15 15 16 17 18 18 18 17 16 15 14 14 13 12 14 16 17 17 16 16 16 14 13 14 14 14 15 14 14 14 11 11 11 12 13 14 16 17 24 28 23 22 24 26 28 29 30 31 31 31 30 29 29 30 30 30
21 20 20 19 19 18 18 18 17 17 17 16 16 16 17 17 17 17 17 15 15 15 15 15 15 16 15 14 13 13 13 13 13 14 15 16 18 19 19 19 18 17 16 16 15 14 15 16 17 18 17 17 17 15 14 15 15 15 15 14 15 16 14 14 14 14 14 15 17 17 26 30 24 22 25 26 28 29 30 32 32 31 30 30 30 31 31 31
23 23 22 21 21 20 19 19 19 18 18 17 17 17 17 17 17 18 17 17 16 16 15 16 16 17 17 15 14 13 12 12 12 14 16 17 18 19 20 20 19 19 18 17 17 16 15 17 18 19 18 17 17 16 16 17 17 15 14 14 17 18 17 16 15 15 15 16 19 19 25 31 27 25 28 29 31 32 33 33 33 32 31 32 32 32 33 33
25 24 24 24 23 22 22 21 21 20 19 19 18 18 18 18 18 18 18 18 17 17 17 17 17 18 18 16 14 13 12 13 15 17 18 18 19 19 20 20 21 20 20 20 18 17 17 17 18 19 18 18 18 17 18 18 16 14 16 17 19 20 21 18 15 15 16 18 21 22 26 31 29 28 31 32 33 34 35 35 34 33 33 34 34 34 35 36
26 26 26 25 25 25 24 23 23 22 21 21 20 19 19 20 19 19 19 19 19 18 18 18 18 19 19 17 15 14 15 18 19 20 20 20 20 20 21 21 21 22 22 21 20 19 19 18 18 19 19 19 18 17 19 18 17 17 19 20 21 22 23 21 17 17 18 20 23 26 29 30 27 28 31 32 33 35 36 36 35 35 36 36 36 37 37 38
26 26 26 26 27 27 26 26 25 25 24 23 22 21 20 21 21 21 20 20 19 18 19 19 19 19 18 17 18 19 20 21 21 21 22 23 22 22 22 22 22 23 23 23 22 21 20 19 19 19 20 21 19 17 18 18 19 20 21 23 24 23 24 23 21 20 20 22 25 27 31 30 27 27 31 32 34 36 37 36 37 37 37 37 37 38 38 39
27 27 27 27 27 27 28 28 27 27 26 25 24 23 23 22 22 22 22 21 20 19 19 19 19 20 20 21 22 23 22 22 23 23 25 25 24 23 23 22 23 23 24 23 23 23 22 21 20 21 22 20 18 18 18 19 20 21 22 25 25 25 25 23 21 22 23 25 28 29 30 31 29 28 30 33 35 37 38 37 37 37 36 37 37 38 39 39
29 28 28 29 29 29 29 28 28 29 28 27 26 25 25 24 24 24 23 22 22 21 20 21 22 23 23 24 24 24 24 25 24 25 26 26 26 24 23 23 23 24 25 25 24 24 24 22 22 23 23 21 19 20 20 19 20 22 23 24 25 27 26 22 22 23 25 28 31 30 31 32 33 31 30 34 37 38 38 36 35 34 34 35 36 37 38 39
30 29 29 29 29 29 30 30 29 29 29 29 28 27 27 27 27 27 26 26 24 24 23 23 24 24 24 25 25 26 27 26 26 26 27 26 24 23 22 22 23 24 24 25 25 25 24 23 23 23 23 23 23 22 20 19 21 23 24 25 26 27 27 24 23 24 25 29 34 34 35 36 35 34 32 33 35 33 32 31 30 30 31 33 34 34 36 37
31 31 30 30 30 30 31 30 29 29 29 29 29 29 29 29 29 29 30 30 28 27 26 26 25 26 26 26 26 28 28 27 26 24 23 22 21 20 20 21 22 23 23 24 25 24 25 25 23 22 24 25 24 22 20 20 22 23 24 25 26 27 27 25 23 24 26 32 37 38 39 41 38 35 30 26 27 26 25 27 26 27 29 30 30 32 33 35
32 32 31 31 31 31 31 31 30 30 29 29 29 29 30 30 31 31 32 34 33 30 29 28 28 27 27 27 28 28 28 26 22 20 19 18 18 17 18 19 21 22 23 24 24 25 26 25 22 23 25 26 24 22 21 21 23 24 25 26 27 26 25 25 25 25 28 33 38 40 45 47 39 31 23 20 24 25 23 26 26 27 27 27 28 30 31 33
33 32 32 32 31 31 31 31 31 30 30 30 29 30 30 31 32 33 33 35 36 35 32 30 30 30 29 28 28 28 25 21 19 18 17 17 16 16 17 18 20 22 23 23 25 27 28 26 26 26 25 24 24 24 24 24 24 24 25 27 27 24 22 24 26 28 33 34 34 39 44 38 23 19 24 27 27 24 22 26 27 27 28 27 28 28 28 31
34 33 33 33 32 32 32 31 31 31 30 30 30 30 31 31 32 33 33 34 37 37 34 32 30 28 28 27 26 24 19 17 17 18 17 17 17 17 18 18 20 22 22 24 26 28 29 28 27 25 24 25 27 27 25 24 26 26 26 26 24 22 22 24 25 30 33 29 28 33 28 14 6 16 32 32 26 23 24 27 27 25 26 26 26 26 27 30
35 35 34 33 33 33 33 33 32 31 31 31 31 31 31 32 32 32 32 31 33 36 34 31 27 23 23 22 19 17 15 15 17 18 18 18 18 19 19 20 22 23 23 24 25 27 29 28 26 25 26 28 28 28 25 23 24 26 26 24 22 23 24 24 27 29 28 24 28 30 23 17 21 33 37 29 25 28 28 27 24 22 24 25 25 26 28 29
38 37 36 35 35 34 35 35 33 33 33 32 32 32 32 32 31 32 28 20 21 27 27 24 20 18 17 15 15 16 16 17 17 18 19 19 20 20 20 22 23 23 24 24 24 25 27 27 27 27 29 30 28 26 23 21 23 26 26 23 23 25 24 25 28 29 31 33 36 36 30 28 34 39 34 27 28 32 29 24 22 21 24 25 27 29 28 27
40 39 38 38 37 37 38 37 36 35 35 34 34 33 32 31 30 29 20 8 8 14 16 16 17 18 19 18 19 21 21 21 20 20 20 20 21 21 22 24 24 25 25 25 27 29 30 31 31 30 30 29 28 25 21 22 24 26 26 24 25 25 23 27 29 31 35 32 33 39 31 20 28 36 32 28 31 32 27 22 22 24 26 28 29 29 27 26
41 40 39 39 39 39 39 39 39 38 37 37 35 33 32 30 28 23 13 6 6 11 15 18 20 22 22 22 22 22 23 23 22 22 21 20 21 22 23 23 24 26 26 27 31 33 33 33 31 31 31 29 26 23 22 23 24 25 25 24 25 24 24 28 30 34 32 21 26 41 30 13 22 34 28 25 30 31 27 25 26 29 30 30 30 28 27 28
42 41 40 40 40 39 39 40 39 38 38 37 35 33 31 28 25 16 8 9 11 13 16 19 23 24 24 26 25 25 25 24 24 24 23 23 24 24 24 25 25 27 28 30 33 35 35 34 32 31 29 26 24 23 24 24 24 25 25 25 25 24 26 29 30 29 20 12 22 32 24 16 16 22 22 25 31 29 28 32 33 33 32 31 29 27 27 29
43 42 41 41 40 38 38 39 39 38 37 36 34 32 29 26 22 12 8 15 19 19 21 23 26 27 26 26 25 24 23 23 23 24 25 25 25 26 27 26 26 28 31 33 34 35 33 32 31 29 26 25 25 25 25 25 24 24 24 24 22 17 19 21 19 14 6 7 17 17 14 17 18 20 29 36 35 28 32 39 37 33 31 29 28 26 26 28
43 43 42 43 42 39 38 37 37 37 36 35 32 30 28 23 21 22 19 18 15 12 15 18 20 21 21 23 24 22 22 23 24 24 26 27 28 30 30 28 27 25 26 29 30 32 35 35 30 28 28 28 27 26 25 25 24 24 24 22 14 7 9 8 4 4 6 10 16 13 10 17 32 43 44 37 30 29 38 41 34 32 30 29 26 24 26 28
43 43 43 43 43 40 38 37 36 36 35 34 30 29 27 18 19 29 30 23 15 12 15 16 18 20 22 25 25 23 23 25 26 25 26 28 31 32 31 31 31 27 27 28 27 27 32 34 30 27 27 25 24 25 23 22 20 20 23 20 10 1 3 4 4 4 7 13 17 14 12 18 34 42 34 26 31 38 41 35 30 31 31 28 25 23 27 30
45 45 44 44 43 41 39 37 36 35 33 32 30 28 27 24 23 28 30 31 30 28 28 27 27 27 27 28 27 26 27 27 28 28 29 31 33 34 35 34 32 32 33 31 27 24 21 23 25 22 20 18 18 18 18 17 16 17 21 20 17 13 8 5 4 3 6 17 20 10 8 14 24 31 32 37 44 41 34 31 30 32 31 27 24 25 30 32
46 46 45 45 43 42 39 37 36 35 31 31 31 31 36 37 34 33 35 37 36 35 35 34 33 32 31 31 31 30 28 28 30 31 32 35 37 37 37 34 32 34 33 27 23 20 18 23 26 21 20 19 17 16 16 17 17 18 21 21 23 24 19 13 14 16 12 17 18 13 16 30 41 49 54 48 41 34 31 34 33 32 32 27 25 29 32 33
45 46 47 46 44 40 39 38 37 34 33 32 33 40 50 50 43 41 39 35 32 33 34 33 33 32 32 34 34 33 31 31 33 32 33 36 39 41 41 36 34 35 35 31 26 19 17 23 25 17 17 20 19 19 19 19 18 19 21 24 25 24 21 17 16 19 11 8 17 19 26 44 48 50 49 36 33 37 36 36 35 33 33 28 29 34 35 35
44 46 48 47 43 38 38 39 36 35 35 35 40 51 58 54 50 47 42 36 34 33 32 32 32 30 30 31 32 31 30 31 34 34 36 35 33 38 39 35 34 35 33 31 30 28 24 29 33 25 20 22 22 21 23 24 25 24 23 23 23 19 19 17 8 7 3 3 14 20 28 40 33 31 42 38 38 44 39 37 40 38 35 33 34 37 37 37
44 45 48 48 42 37 38 39 38 37 35 38 49 58 58 54 53 50 44 42 40 37 37 37 35 32 31 31 30 27 26 30 33 33 35 34 31 33 31 27 30 31 28 26 28 30 27 28 34 33 27 26 25 24 25 27 29 30 29 25 22 16 13 14 9 4 3 2 9 16 23 37 37 34 45 48 44 46 43 42 45 43 39 39 39 40 40 37
43 45 48 47 40 36 38 40 39 38 38 46 55 59 58 57 55 51 47 44 42 41 42 44 41 37 36 36 34 31 29 32 34 33 33 32 31 35 32 28 29 28 25 25 27 31 29 23 25 31 29 24 24 29 32 33 31 31 31 31 31 25 16 17 16 9 5 3 8 12 11 33 51 44 45 52 50 49 48 48 49 46 43 44 44 43 41 39
43 45 48 45 39 36 38 39 40 41 46 54 59 60 60 58 55 52 49 46 45 45 46 47 45 42 43 43 40 37 34 33 35 35 36 35 35 37 36 34 33 29 26 24 25 30 31 26 26 33 29 25 30 35 34 33 29 29 33 35 36 33 25 21 22 23 17 5 5 5 4 36 67 59 54 61 57 51 50 51 52 49 47 49 47 45 44 42
44 46 49 46 40 37 37 40 44 48 54 59 60 60 60 57 55 54 50 47 47 48 48 48 47 47 48 47 44 41 36 36 38 38 39 43 42 41 40 37 33 29 26 26 27 30 31 31 35 38 35 35 41 41 34 29 26 26 32 35 36 35 30 18 13 25 30 19 13 3 1 41 77 70 62 62 53 50 53 54 56 54 52 52 49 48 48 46
47 49 50 45 41 39 39 42 47 50 56 60 60 59 58 57 57 55 52 50 49 48 49 49 51 52 51 49 47 44 40 41 43 42 43 46 47 45 43 39 33 28 26 27 28 31 32 33 36 41 43 44 43 38 32 29 28 28 33 37 35 34 36 27 14 19 27 28 27 8 2 44 78 69 59 57 51 53 58 59 60 58 55 55 53 52 51 48
52 52 49 46 44 41 40 44 48 51 57 58 57 57 57 57 57 56 54 52 50 50 50 51 54 53 52 51 48 47 45 44 46 48 48 49 51 49 45 43 39 35 32 30 29 29 31 33 36 39 42 41 39 38 35 30 29 33 39 43 41 40 44 42 33 28 22 23 22 5 5 48 74 65 57 57 54 57 63 64 63 60 59 58 55 54 52 47
53 53 50 48 46 44 45 50 53 55 57 57 56 57 57 57 58 58 57 55 53 53 53 54 55 53 51 50 48 49 47 43 46 50 49 49 52 49 45 43 42 41 39 37 34 30 30 33 35 29 22 21 24 24 26 31 35 40 45 45 45 49 47 43 41 34 25 28 22 9 15 54 71 65 59 58 57 63 68 66 63 62 61 59 56 53 51 47
49 50 51 51 50 50 52 55 55 55 55 55 57 58 57 58 59 58 58 58 57 56 54 53 52 51 50 49 49 50 48 46 46 47 48 49 49 47 44 41 40 42 42 40 38 36 34 36 36 28 14 11 16 15 17 25 30 36 43 41 41 45 43 43 42 30 26 34 30 23 37 64 72 67 64 63 63 67 68 65 63 63 61 59 56 52 50 47
49 50 52 53 52 54 58 57 54 54 54 54 55 56 57 60 61 59 58 60 60 58 56 54 53 51 50 49 49 49 51 51 49 50 52 51 47 44 42 40 39 40 40 39 39 39 39 41 44 43 36 34 40 38 31 27 26 31 38 39 39 39 40 44 41 35 38 36 33 46 61 66 72 74 68 64 65 67 68 65 63 63 62 59 56 52 49 47
51 54 56 55 49 50 59 61 59 58 57 55 55 57 60 61 61 60 60 61 60 57 55 56 56 54 53 53 52 52 55 54 52 54 56 54 51 47 44 43 43 41 39 37 37 40 43 45 48 51 51 52 55 53 45 40 40 43 44 47 48 43 41 44 44 48 50 31 30 60 68 59 71 81 70 63 65 69 69 67 65 65 63 59 55 52 50 48
54 57 58 58 53 51 58 63 62 60 59 58 59 59 61 62 63 63 62 60 58 56 54 56 59 60 59 58 54 53 55 54 55 58 58 56 54 51 49 49 48 46 41 36 37 40 43 47 50 51 51 54 56 54 51 49 50 51 51 55 57 48 44 48 51 56 54 40 46 68 66 61 76 82 72 66 67 69 69 67 66 63 59 56 54 53 52 50
57 58 58 60 60 60 62 64 61 56 54 56 58 59 61 64 66 66 62 57 56 57 56 58 62 63 61 59 56 55 56 55 57 59 57 55 53 51 51 51 49 48 44 41 42 41 43 49 51 48 50 54 55 54 52 50 51 54 56 61 63 55 52 57 57 57 56 55 65 70 66 72 83 80 73 66 64 65 65 62 59 55 51 52 51 51 51 48
59 61 62 63 63 63 63 62 60 58 57 54 55 59 64 65 66 65 62 60 60 61 60 61 65 63 58 55 56 59 62 62 61 60 55 52 50 48 48 47 45 44 43 44 45 43 46 50 48 46 46 51 56 53 48 48 49 51 58 66 66 58 57 61 60 58 57 60 67 67 68 78 80 72 67 63 61 63 61 55 52 48 46 46 45 46 46 43
60 61 61 61 63 64 62 60 60 61 61 59 61 66 68 68 67 65 62 63 63 63 61 61 62 59 53 52 56 61 63 61 59 57 53 53 51 47 47 46 44 43 43 44 45 45 46 47 48 44 38 45 55 46 39 44 42 44 61 72 69 62 60 62 62 61 61 62 65 63 66 73 71 65 63 63 62 61 57 51 47 44 42 42 41 41 41 39
63 61 61 61 63 63 60 60 60 60 63 66 68 69 67 66 66 62 60 62 64 63 61 61 60 55 51 53 59 62 60 56 55 53 51 54 54 51 51 51 50 49 47 43 41 42 42 43 48 42 33 40 49 40 36 34 22 32 63 73 65 60 59 60 61 62 61 62 64 62 63 68 68 64 63 62 58 56 52 48 45 43 42 41 39 39 39 38
Wind_Direction
266 273 280 285 292 299 307 314 320 323 325 325 325 326 329 332 337 341 344 346 349 358 8 11 10 12 15 18 18 16 14 13 10 16 23 17 11 15 14 13 11 10 8 7 6 5 1 348 337 328 322 319 313 307 302 297 292 289 283 279 282 286 285 280 275 271 272 274 275 279 285 291 297 301 303 304 306 306 305 302 299 298 295 293 293 293 291 289
269 274 280 285 291 297 305 312 316 321 323 323 323 322 322 323 327 332 336 340 340 343 354 3 5 4 5 10 12 10 8 7 8 12 15 10 11 15 13 13 12 9 7 7 6 5 3 356 345 331 321 317 314 309 303 300 294 288 282 281 283 287 287 285 282 277 275 276 278 284 289 294 297 299 300 300 303 304 302 302 301 298 296 294 293 291 289 287
271 276 280 284 290 296 302 308 312 317 320 322 322 320 319 317 318 322 327 331 334 335 337 349 358 357 356 359 2 4 2 1 4 6 6 5 9 15 14 15 14 12 12 10 8 7 3 355 347 337 326 321 316 311 306 299 294 290 285 282 281 282 284 284 282 279 278 280 283 289 292 295 297 297 297 299 301 302 302 302 301 299 298 297 294 291 288 285
273 277 282 286 290 295 300 305 309 312 316 319 320 319 317 315 314 316 319 321 324 328 329 332 342 349 348 346 350 355 353 353 357 358 359 360 3 11 14 14 15 15 14 12 11 9 3 353 347 339 332 327 316 311 308 295 290 292 287 281 279 280 282 283 282 281 282 284 286 288 291 295 296 296 296 298 299 300 302 301 300 300 299 296 293 290 286 283
278 279 282 287 290 295 298 302 307 310 313 315 317 317 316 314 312 313 314 314 315 317 320 322 325 333 336 335 336 340 343 345 347 349 350 353 356 4 11 11 12 14 12 11 13 11 3 355 349 340 335 330 315 307 301 292 289 288 285 279 277 279 281 281 282 282 283 285 285 286 289 292 293 293 295 296 296 298 298 298 300 300 298 295 291 288 285 282
279 280 283 286 290 295 298 302 306 309 310 313 314 315 314 312 309 308 310 310 308 309 310 312 313 316 320 322 321 323 330 330 330 335 336 341 345 352 2 4 7 10 8 10 11 8 3 356 351 345 340 332 317 306 301 297 292 289 285 277 275 276 279 281 282 283 284 284 284 286 287 289 291 292 293 293 294 295 295 298 301 299 297 294 291 288 284 282
278 280 283 285 290 295 299 303 306 309 311 311 312 312 312 310 307 305 305 305 303 303 303 303 303 305 306 307 308 308 311 311 313 320 322 324 330 337 348 354 358 2 3 6 6 3 1 359 355 348 343 338 329 318 310 306 303 304 290 276 278 278 278 280 280 282 282 283 285 286 287 288 289 290 289 290 291 291 295 300 300 298 297 295 292 289 284 281
276 279 282 285 289 294 299 303 307 309 311 311 311 311 309 308 306 303 302 301 300 299 299 298 296 297 297 297 299 297 298 300 299 304 307 309 314 321 329 339 346 351 355 358 356 355 356 358 357 353 350 345 341 332 321 318 312 310 296 282 287 285 282 281 280 282 282 283 283 284 285 285 285 285 284 286 288 290 297 300 299 299 299 297 293 288 284 280
273 276 280 283 287 291 296 301 305 308 310 312 311 310 308 307 306 304 303 301 299 299 298 298 295 293 293 293 292 291 293 296 291 289 292 295 300 307 313 320 330 338 345 346 346 348 349 350 352 352 352 347 344 338 328 323 314 310 303 292 292 290 289 288 286 285 284 283 282 282 282 280 280 279 282 287 289 292 297 298 298 300 300 297 292 288 284 282
271 274 277 280 284 287 292 297 302 305 308 311 311 310 308 306 306 306 306 304 300 299 299 298 296 293 293 291 290 290 291 292 287 280 279 283 288 294 300 305 314 322 330 334 337 341 341 343 343 343 346 343 340 337 330 325 318 314 309 304 301 295 292 291 289 288 287 286 283 282 280 279 278 278 286 294 292 292 295 296 297 299 298 294 290 288 287 286
269 271 274 277 280 283 287 292 297 301 304 307 309 308 307 307 307 306 307 306 303 302 301 300 298 295 293 292 292 291 291 289 284 276 273 276 279 284 289 293 300 306 316 325 329 334 335 334 334 335 338 337 334 331 328 322 318 315 312 314 308 299 296 292 289 288 287 286 284 284 282 279 278 284 295 295 289 291 294 295 297 298 297 293 290 289 289 290
267 267 270 273 276 279 282 287 293 298 301 303 305 306 306 307 306 306 307 306 305 304 303 303 302 299 297 297 296 294 292 287 283 276 272 273 274 278 282 285 290 294 302 312 320 329 331 329 328 328 328 329 329 326 322 317 316 316 313 316 311 303 299 293 291 290 289 288 288 290 287 281 282 294 300 293 291 293 293 294 295 296 294 291 288 288 289 290
268 267 267 268 271 274 278 284 289 294 298 299 302 303 303 305 305 305 306 306 305 305 305 304 304 303 301 302 300 297 294 288 283 278 273 271 271 274 277 280 283 286 292 299 309 322 328 327 325 324 322 322 324 318 314 312 312 312 312 315 314 311 308 303 299 292 292 291 289 290 287 289 297 300 295 291 292 292 291 293 293 292 291 288 286 286 288 290
268 268 267 267 268 270 274 280 286 292 296 297 299 300 300 302 302 302 303 304 303 303 304 303 303 301 300 302 300 298 296 291 286 281 276 274 273 273 273 276 278 281 284 289 298 310 321 325 323 324 319 316 318 313 310 310 308 308 308 309 311 313 317 316 309 300 297 291 289 283 282 295 308 299 294 295 295 293 292 293 292 292 290 287 286 287 289 291
269 269 269 268 268 268 271 275 282 288 293 296 298 299 298 299 300 300 300 301 301 301 301 301 301 299 299 301 300 298 296 290 290 288 283 279 276 273 272 272 273 276 279 283 291 300 310 320 322 323 319 313 313 310 309 308 306 305 303 304 307 310 313 316 313 308 304 293 288 280 279 296 308 302 301 301 298 297 296 294 293 292 291 289 288 289 290 291
268 269 269 269 269 269 270 273 277 283 289 293 296 298 297 296 298 298 298 298 298 299 299 299 298 299 300 301 298 297 294 292 295 294 289 283 279 276 271 269 269 273 276 280 286 294 301 310 318 320 318 313 309 307 308 305 304 304 302 303 306 308 309 313 317 314 309 298 291 285 284 297 307 307 306 304 302 301 298 296 296 295 293 291 290 290 290 290
267 268 269 270 270 270 271 272 275 279 285 289 291 295 297 296 296 296 296 296 296 298 298 298 298 298 298 298 297 297 298 297 298 295 291 286 281 277 271 266 265 268 272 276 281 289 294 301 312 317 318 313 306 304 307 305 305 306 304 303 304 306 306 308 314 314 308 297 292 288 286 296 308 307 304 302 301 299 296 297 296 294 292 290 290 290 290 290
266 266 267 268 269 270 271 273 276 278 282 287 289 290 293 294 294 294 295 294 295 296 296 296 297 297 296 298 299 299 300 298 297 295 291 286 281 277 270 264 261 264 267 271 276 283 289 296 306 313 316 313 303 300 304 303 303 305 305 303 303 304 302 304 312 312 303 293 289 285 285 295 303 301 299 298 297 295 293 293 292 291 290 290 290 290 290 290
268 267 266 266 267 269 270 272 275 277 280 285 288 290 292 293 294 295 294 294 294 295 296 296 294 295 296 298 299 299 299 297 295 293 289 285 281 275 269 263 259 261 264 267 272 277 283 292 301 308 314 313 302 297 299 299 300 303 303 301 301 302 300 305 312 308 301 293 288 287 288 293 298 299 298 295 293 290 288 288 289 290 290 290 290 290 290 290
269 268 267 266 266 267 269 270 273 276 279 282 285 288 291 292 294 295 293 292 293 293 294 294 293 294 295 296 297 298 297 296 294 292 288 284 280 275 268 262 259 258 260 263 268 273 277 287 297 304 310 312 304 299 297 297 300 300 298 297 297 296 297 305 308 302 300 296 294 295 293 292 296 301 300 294 290 289 289 291 292 291 290 290 290 290 290 290
269 269 269 268 268 268 269 270 272 275 278 281 284 287 290 292 294 294 291 289 291 291 290 291 292 293 295 296 296 297 296 294 293 289 284 280 278 272 266 262 259 258 258 259 263 268 274 283 293 298 304 308 304 297 293 295 299 299 296 295 293 292 297 303 301 299 301 297 297 300 295 292 296 302 303 295 289 292 294 294 293 292 290 289 290 290 290 290
269 270 270 270 271 271 271 272 273 275 277 280 284 287 290 292 293 293 292 289 286 286 288 289 291 292 293 294 295 294 293 293 291 284 278 277 274 270 265 261 259 258 257 256 259 265 273 282 289 293 299 305 302 294 291 295 299 298 295 292 290 293 299 300 296 299 302 299 300 302 296 292 296 303 307 299 294 300 301 296 294 292 290 290 292 292 290 288
269 270 271 271 271 272 273 273 274 276 278 280 283 286 289 291 292 293 295 292 286 283 285 286 287 289 290 291 292 291 289 289 284 277 274 273 270 266 262 259 256 256 255 256 259 265 273 281 286 291 297 301 298 291 289 294 298 296 291 288 288 295 299 297 296 298 300 300 302 303 297 294 297 304 311 308 305 310 305 298 294 291 292 294 294 291 288 285
268 269 270 271 272 273 273 274 275 277 279 281 284 286 288 290 292 294 295 295 289 284 283 285 285 285 286 288 287 285 284 281 274 272 273 271 269 264 260 258 254 254 256 258 261 266 273 279 285 290 294 297 295 290 288 294 297 293 287 285 287 293 293 292 296 299 301 301 302 305 302 297 298 306 314 315 311 312 307 298 296 295 296 295 292 291 291 287
266 267 268 270 271 272 273 274 275 276 278 281 284 286 288 291 293 295 296 297 293 286 284 286 284 282 283 282 281 279 274 268 267 271 273 272 271 266 262 260 256 257 258 260 263 268 274 278 284 286 288 293 293 287 287 292 295 290 286 286 288 291 289 289 296 300 303 302 302 310 310 302 268 289 309 315 308 310 308 302 303 302 296 293 294 295 290 287
264 265 267 268 270 271 273 273 274 276 278 280 283 285 287 290 292 295 297 298 292 287 286 285 281 279 277 273 270 267 262 262 266 269 269 269 269 266 263 260 259 258 257 260 264 269 275 279 282 284 289 295 291 284 286 291 291 286 287 288 285 287 289 289 293 299 302 295 296 303 296 281 275 283 301 312 305 309 312 309 310 304 297 296 298 295 289 288
263 265 266 268 269 270 271 273 274 275 277 279 281 282 285 288 291 294 297 297 289 287 285 278 273 272 268 260 259 261 262 269 269 267 266 265 264 262 259 258 258 256 257 260 262 269 277 281 283 286 290 291 285 283 287 285 281 281 285 286 282 285 288 287 292 297 296 292 293 293 283 279 280 284 300 307 303 313 318 316 312 302 301 303 299 296 294 293
263 263 265 266 268 269 270 272 273 274 276 277 278 281 283 285 287 291 293 291 290 291 279 268 268 268 265 263 265 265 266 270 267 266 266 261 259 258 256 257 256 255 256 257 261 272 280 282 283 285 287 285 283 285 283 277 277 278 281 281 281 284 283 284 291 292 294 295 291 287 281 274 276 282 295 299 301 317 323 316 310 304 305 305 301 300 299 296
262 263 264 265 266 267 269 270 272 273 275 275 277 279 280 282 284 284 275 252 277 278 265 266 268 268 270 270 268 266 266 266 262 262 262 256 256 256 255 255 253 254 255 257 265 275 280 280 281 282 281 281 281 280 275 275 276 275 277 278 280 283 282 285 289 289 292 288 278 284 280 257 275 283 283 290 304 318 321 316 312 309 309 307 304 304 302 297
261 262 263 264 265 265 267 269 270 272 273 274 276 276 276 277 275 267 239 242 265 266 261 267 269 271 275 273 270 268 265 262 259 257 255 253 255 254 251 252 252 253 256 259 269 276 278 278 277 278 278 277 276 272 271 274 272 271 273 275 278 281 283 284 284 286 291 273 270 284 278 248 272 284 274 288 308 317 318 316 315 313 312 308 305 304 302 296
261 261 262 262 263 264 265 266 268 269 270 271 272 272 272 270 261 234 220 259 269 267 262 265 270 273 275 273 269 266 260 256 253 252 253 254 254 251 249 249 250 254 259 263 271 277 277 276 275 277 276 273 272 269 269 269 266 266 268 272 279 286 288 286 281 277 268 265 279 292 279 243 237 259 275 291 305 316 318 315 314 313 311 306 305 304 300 295
261 261 261 261 262 263 264 264 265 266 266 266 266 266 262 258 242 225 234 259 268 265 258 260 266 268 270 268 263 260 255 252 251 251 255 256 254 253 252 250 249 254 263 267 273 278 279 278 277 277 275 272 267 262 261 260 257 258 259 265 275 303 309 289 260 256 232 255 277 285 283 249 247 265 280 289 300 315 316 312 311 311 308 305 305 303 299 295
261 261 260 260 260 260 261 262 262 261 262 261 259 257 250 241 237 235 238 246 249 258 261 261 264 262 262 261 260 259 255 254 256 254 255 255 254 253 252 249 247 249 260 269 274 279 282 283 279 274 272 268 260 254 254 255 252 249 250 251 245 180 1 278 250 273 255 265 276 270 272 266 266 278 287 290 303 313 313 310 310 307 305 305 303 302 302 299
259 259 259 258 258 258 258 259 259 259 258 255 253 249 235 228 239 242 243 249 255 262 265 265 265 261 258 256 256 257 254 256 258 256 255 255 253 253 250 247 245 247 256 266 272 273 273 277 279 274 268 264 258 250 245 247 246 245 244 240 236 229 221 237 257 250 282 301 294 256 230 260 273 285 292 295 303 309 311 312 311 306 303 302 300 304 307 303
258 257 256 256 255 255 255 255 255 254 251 249 247 238 228 229 238 242 248 256 259 263 264 264 263 258 255 255 255 254 252 253 256 256 255 255 256 258 255 250 248 249 252 255 263 268 261 268 278 273 261 259 255 247 238 235 240 245 239 231 239 245 239 240 262 269 291 314 293 246 240 266 278 287 289 294 300 306 312 313 311 306 301 297 299 307 310 304
258 256 255 254 252 251 251 250 251 249 246 245 239 234 237 242 246 248 253 258 258 261 264 262 258 253 251 253 253 251 251 252 254 253 253 255 258 258 255 255 254 254 254 252 255 263 265 274 281 272 254 251 248 245 238 233 241 245 236 237 247 253 248 242 261 278 287 299 278 264 269 279 287 293 293 295 303 306 312 314 311 306 298 293 299 307 309 305
257 256 255 254 251 247 247 247 245 243 242 239 236 241 248 251 252 252 254 255 256 260 261 257 255 253 251 252 252 252 250 249 250 250 250 253 256 257 255 256 258 257 258 257 256 258 259 269 276 271 257 253 249 244 237 238 244 241 239 248 254 253 248 239 247 296 284 254 274 270 278 284 286 289 292 297 303 305 310 312 309 304 297 295 299 305 308 306
257 256 255 254 250 245 245 245 242 240 237 236 240 247 251 252 253 253 253 255 258 259 256 254 256 257 256 254 254 253 246 243 245 246 248 249 253 259 258 254 258 259 258 253 249 250 251 262 274 272 261 255 248 237 233 236 238 239 246 252 248 242 234 219 210 259 247 192 273 274 282 283 273 271 287 295 299 303 306 307 307 305 300 298 300 303 306 305
257 256 255 254 250 244 243 242 241 238 234 235 241 247 250 252 253 254 256 258 258 255 254 255 255 255 256 256 257 255 247 244 246 245 246 248 252 259 260 256 258 259 255 246 239 243 245 249 270 272 263 252 239 230 231 235 234 235 243 244 243 244 238 226 219 223 226 188 265 285 298 285 279 280 288 294 297 300 302 306 307 306 302 300 301 302 304 306
257 257 257 256 250 243 241 240 239 236 235 240 246 249 251 253 255 259 260 258 256 254 254 256 255 253 255 258 256 254 250 248 250 246 246 249 252 258 263 262 260 258 255 245 235 238 238 236 255 265 257 241 238 241 245 249 245 239 240 240 241 242 238 241 239 235 237 224 254 282 284 281 285 289 290 293 296 296 301 308 308 305 304 304 302 302 304 307
257 256 258 257 252 247 242 237 237 238 240 244 248 248 250 254 258 260 259 256 255 255 254 256 255 254 256 256 253 253 251 250 252 248 247 250 252 257 264 266 263 258 251 242 236 237 235 235 246 252 249 247 254 260 260 258 254 249 249 249 249 248 241 241 250 241 238 234 238 221 223 276 283 288 290 291 293 295 303 309 306 304 306 305 302 302 304 306
256 256 258 258 254 250 245 241 243 243 243 246 248 248 251 255 257 257 257 254 252 252 252 253 254 253 253 253 252 253 252 252 253 250 249 254 258 262 266 267 263 258 254 250 249 247 242 240 244 248 252 259 264 264 259 255 251 247 250 250 251 253 243 233 234 241 239 238 242 238 259 274 281 287 290 290 292 296 303 305 302 302 303 304 303 301 303 304
256 256 257 257 255 251 245 243 244 243 244 248 250 251 252 253 255 256 256 253 250 250 250 250 252 251 250 251 252 252 252 251 253 253 254 259 264 266 265 263 262 261 257 252 247 243 237 237 241 249 257 260 261 261 257 252 246 242 247 248 246 250 248 242 240 243 247 242 235 197 245 269 279 286 286 288 291 296 301 301 299 300 301 303 303 300 301 301
256 257 256 254 253 249 243 243 244 243 246 250 251 251 252 252 254 256 255 254 252 252 251 251 252 251 252 254 253 253 252 250 253 257 259 262 265 266 263 261 262 261 258 255 251 244 237 235 238 246 261 264 260 259 250 241 240 244 251 252 251 253 252 247 243 244 253 250 231 174 240 264 278 286 283 285 289 294 299 298 296 298 300 302 301 299 299 298
252 253 253 251 249 247 245 247 249 248 250 251 251 253 254 254 256 257 258 259 257 255 253 252 253 254 255 256 254 253 252 251 254 259 261 261 261 263 262 261 262 261 260 260 256 251 247 244 239 234 232 243 248 249 243 242 244 247 252 256 255 255 251 244 241 236 244 251 235 220 248 266 279 283 279 282 288 293 297 295 294 297 299 300 299 298 297 295
246 247 248 247 245 246 248 249 248 247 248 248 249 251 253 254 257 258 258 258 256 253 251 252 253 254 253 253 252 253 254 254 254 255 257 258 257 260 262 261 261 260 258 255 251 248 248 248 247 242 237 243 253 259 261 261 260 257 261 267 264 262 257 246 236 232 242 248 241 244 255 267 277 281 279 282 289 294 294 293 294 296 297 298 297 295 294 292
242 244 246 244 241 243 247 248 246 245 245 244 245 249 252 254 256 257 255 255 254 251 250 252 252 249 249 250 250 251 254 255 253 253 255 256 256 259 261 261 262 261 258 253 247 244 243 245 250 249 246 251 258 263 264 263 266 267 269 272 268 266 262 244 234 242 249 244 247 259 263 265 274 281 283 283 288 291 291 291 293 295 295 295 293 291 290 289
240 247 249 248 244 244 247 250 251 250 248 246 247 249 252 253 254 254 254 254 253 252 250 250 251 250 251 251 248 249 252 253 252 252 253 254 256 257 258 261 261 258 256 252 246 244 241 245 254 252 250 256 260 263 261 260 264 266 267 270 267 264 261 251 245 252 252 242 252 266 269 268 274 281 283 285 289 289 290 292 292 293 293 292 291 289 289 288
239 245 249 248 247 248 251 254 257 257 254 251 248 249 250 253 254 254 254 253 252 253 251 250 254 256 254 250 245 245 249 250 251 253 254 255 257 257 258 261 261 259 257 253 250 246 240 246 255 253 251 257 260 261 260 258 260 263 265 268 266 261 261 260 258 259 256 251 257 266 269 271 278 282 284 291 293 289 290 293 292 293 293 291 290 289 288 289
241 243 246 246 246 248 250 251 252 253 254 250 247 249 251 251 253 253 253 252 252 254 253 252 258 260 254 249 246 247 253 256 255 257 260 259 259 260 261 264 266 266 263 257 253 246 239 245 253 251 250 257 261 260 260 259 259 262 265 268 267 262 260 260 260 260 257 256 261 265 264 269 281 290 292 297 296 289 291 293 291 292 292 291 291 288 288 289
250 246 243 242 244 246 246 246 247 248 250 247 246 251 252 252 255 254 251 252 253 254 254 256 262 262 256 251 250 253 260 263 260 263 267 265 264 267 268 269 270 269 265 261 256 246 240 243 248 247 247 256 262 262 261 261 263 264 265 267 266 262 259 260 261 260 258 258 262 262 260 269 287 300 299 296 293 291 292 292 290 291 291 289 289 287 286 285
254 246 242 242 244 245 244 245 244 243 246 249 252 256 256 257 260 257 251 254 256 256 257 260 263 263 256 253 256 262 268 270 269 270 270 265 264 266 265 265 265 264 262 261 258 252 248 246 247 244 242 254 262 263 262 264 267 262 263 267 269 266 264 264 264 265 265 262 260 260 265 277 291 297 293 293 294 293 294 294 292 291 288 285 283 281 280 278
Height
3205 3204 3204 3203 3203 3202 3202 3202 3201 3200 3200 3199 3199 3198 3198 3197 3196 3196 3195 3195 3194 3193 3192 3191 3190 3189 3188 3187 3186 3185 3185 3184 3183 3181 3180 3179 3178 3177 3176 3175 3174 3173 3172 3171 3171 3170 3170 3169 3169 3168 3167 3166 3166 3166 3165 3165 3164 3164 3163 3163 3162 3161 3161 3161 3161 3161 3161 3161 3161 3161 3160 3161 3161 3160 3160 3159 3159 3158 3157 3157 3156 3156 3155 3155 3154 3154 3153 3153
3204 3204 3203 3203 3202 3202 3202 3201 3201 3200 3200 3199 3198 3198 3198 3197 3197 3196 3195 3195 3194 3193 3192 3192 3191 3190 3189 3188 3187 3186 3185 3184 3183 3182 3180 3180 3178 3177 3176 3175 3174 3173 3172 3171 3170 3169 3169 3169 3169 3168 3167 3166 3165 3165 3165 3164 3163 3163 3163 3162 3161 3161 3160 3160 3160 3160 3160 3160 3160 3159 3158 3158 3159 3159 3158 3158 3157 3157 3156 3155 3155 3154 3153 3153 3153 3153 3152 3152
3203 3203 3203 3202 3202 3202 3201 3201 3201 3200 3200 3199 3198 3198 3197 3197 3196 3196 3195 3194 3194 3193 3192 3192 3191 3190 3189 3188 3187 3186 3185 3184 3183 3182 3181 3180 3179 3178 3177 3176 3174 3173 3172 3171 3170 3169 3168 3168 3168 3168 3167 3166 3165 3165 3164 3164 3163 3162 3162 3161 3160 3160 3159 3159 3159 3159 3158 3159 3158 3158 3156 3156 3157 3157 3156 3155 3155 3155 3154 3154 3153 3152 3152 3151 3151 3151 3151 3150
3203 3203 3202 3202 3202 3201 3201 3201 3200 3200 3199 3199 3198 3197 3197 3196 3196 3196 3195 3194 3194 3193 3192 3192 3191 3190 3189 3188 3187 3186 3185 3184 3183 3183 3182 3181 3179 3178 3177 3176 3175 3173 3172 3171 3170 3169 3168 3167 3167 3167 3166 3166 3165 3164 3164 3163 3162 3162 3161 3160 3160 3159 3158 3158 3157 3157 3157 3157 3157 3157 3155 3154 3155 3154 3154 3153 3153 3152 3152 3152 3151 3151 3150 3150 3149 3149 3149 3148
3202 3202 3202 3202 3201 3201 3201 3200 3200 3199 3199 3198 3198 3197 3196 3196 3195 3195 3194 3194 3193 3193 3192 3191 3191 3190 3189 3188 3187 3186 3185 3184 3183 3183 3182 3181 3180 3178 3177 3176 3175 3174 3172 3171 3170 3169 3168 3167 3167 3166 3166 3165 3164 3163 3163 3162 3162 3161 3160 3159 3159 3158 3157 3157 3156 3156 3156 3156 3156 3155 3154 3153 3153 3152 3151 3151 3151 3151 3151 3150 3150 3149 3149 3148 3147 3147 3146 3146
3201 3201 3201 3201 3201 3200 3200 3199 3199 3199 3198 3198 3197 3196 3195 3195 3194 3194 3194 3193 3192 3192 3191 3191 3190 3189 3189 3188 3187 3186 3185 3184 3184 3183 3182 3181 3180 3179 3177 3176 3175 3174 3172 3171 3169 3169 3168 3167 3166 3166 3165 3164 3164 3163 3162 3161 3161 3160 3160 3158 3158 3157 3157 3156 3156 3155 3155 3154 3154 3154 3153 3152 3151 3150 3149 3149 3149 3149 3149 3148 3148 3147 3146 3146 3145 3144 3144 3143
3200 3200 3200 3200 3200 3199 3199 3199 3198 3198 3197 3197 3196 3196 3195 3194 3193 3193 3193 3192 3191 3191 3190 3190 3189 3189 3188 3187 3187 3186 3185 3184 3184 3183 3182 3181 3180 3179 3177 3176 3175 3174 3172 3171 3170 3169 3168 3168 3166 3166 3165 3164 3163 3162 3161 3161 3160 3159 3159 3158 3157 3157 3156 3156 3155 3154 3154 3153 3152 3152 3151 3150 3149 3148 3147 3147 3147 3147 3146 3146 3145 3144 3144 3143 3142 3142 3141 3140
3198 3198 3199 3199 3198 3198 3198 3198 3197 3197 3196 3196 3195 3195 3194 3193 3192 3192 3192 3191 3190 3190 3189 3189 3188 3188 3187 3187 3186 3185 3184 3184 3183 3182 3181 3180 3179 3178 3177 3176 3175 3174 3172 3171 3170 3169 3168 3167 3166 3165 3164 3164 3163 3162 3161 3160 3159 3158 3158 3157 3157 3156 3155 3155 3154 3153 3153 3152 3151 3150 3150 3149 3148 3147 3146 3145 3145 3144 3144 3143 3142 3142 3141 3140 3139 3139 3138 3138
3197 3197 3197 3197 3197 3197 3197 3197 3196 3196 3195 3195 3194 3193 3193 3192 3191 3191 3190 3190 3189 3188 3188 3188 3187 3187 3186 3185 3185 3184 3183 3183 3182 3181 3181 3180 3179 3178 3177 3176 3175 3173 3172 3171 3170 3168 3167 3167 3166 3165 3164 3163 3162 3161 3160 3159 3158 3158 3157 3157 3156 3155 3154 3153 3153 3152 3151 3150 3150 3149 3148 3147 3146 3145 3144 3144 3143 3142 3141 3140 3140 3139 3138 3137 3136 3136 3135 3135
3195 3195 3195 3195 3195 3195 3195 3195 3195 3194 3194 3193 3192 3192 3191 3191 3190 3189 3189 3188 3187 3187 3186 3186 3186 3185 3185 3184 3183 3183 3182 3181 3181 3180 3179 3179 3178 3177 3176 3175 3174 3173 3172 3171 3170 3168 3167 3166 3165 3164 3164 3163 3162 3161 3160 3159 3158 3157 3156 3155 3155 3154 3153 3152 3151 3150 3150 3149 3148 3147 3147 3145 3144 3143 3143 3143 3142 3140 3139 3138 3137 3136 3135 3134 3134 3133 3132 3132
3193 3193 3193 3193 3193 3193 3193 3193 3193 3193 3192 3192 3191 3190 3190 3189 3189 3188 3188 3187 3186 3185 3185 3184 3184 3183 3183 3182 3181 3181 3180 3180 3179 3178 3178 3177 3177 3176 3175 3174 3174 3173 3171 3171 3169 3168 3167 3166 3165 3164 3163 3162 3161 3160 3159 3158 3157 3156 3155 3154 3153 3152 3152 3151 3150 3149 3148 3147 3146 3146 3145 3143 3142 3142 3142 3141 3139 3138 3137 3136 3135 3133 3133 3132 3131 3130 3129 3129
3191 3191 3191 3191 3191 3191 3191 3191 3191 3191 3190 3190 3189 3189 3188 3188 3187 3186 3186 3185 3185 3184 3183 3182 3182 3181 3181 3180 3180 3179 3178 3178 3177 3177 3176 3176 3175 3175 3174 3173 3173 3172 3171 3170 3169 3168 3166 3165 3164 3163 3162 3161 3160 3159 3158 3157 3156 3155 3153 3153 3152 3151 3150 3149 3149 3148 3147 3147 3145 3145 3142 3140 3140 3140 3140 3139 3137 3135 3134 3133 3132 3131 3130 3129 3128 3127 3126 3125
3189 3189 3189 3189 3189 3189 3189 3189 3189 3189 3188 3188 3188 3187 3186 3186 3185 3184 3184 3184 3183 3182 3182 3181 3180 3179 3179 3178 3178 3177 3176 3176 3175 3175 3174 3174 3173 3173 3172 3172 3171 3171 3170 3169 3168 3167 3166 3165 3163 3162 3161 3160 3159 3158 3157 3156 3155 3154 3152 3151 3150 3149 3149 3148 3147 3147 3146 3145 3144 3144 3139 3135 3138 3139 3138 3136 3134 3133 3132 3130 3130 3128 3127 3126 3125 3123 3122 3122
3187 3187 3187 3187 3187 3187 3187 3187 3187 3187 3186 3186 3186 3185 3184 3184 3183 3183 3182 3182 3181 3181 3180 3179 3178 3178 3177 3177 3176 3175 3174 3174 3173 3173 3173 3172 3172 3171 3171 3170 3170 3169 3168 3168 3167 3166 3165 3164 3163 3161 3160 3159 3158 3157 3156 3155 3154 3153 3151 3150 3149 3147 3147 3146 3146 3144 3144 3143 3142 3143 3137 3131 3135 3136 3134 3133 3132 3130 3129 3128 3126 3125 3124 3122 3121 3120 3119 3118
3184 3185 3185 3185 3185 3185 3185 3185 3185 3185 3184 3184 3184 3183 3182 3182 3181 3181 3180 3180 3179 3179 3178 3177 3176 3176 3175 3175 3174 3173 3173 3172 3172 3172 3171 3171 3170 3169 3169 3168 3168 3167 3167 3166 3165 3165 3164 3163 3162 3160 3159 3158 3157 3156 3154 3153 3152 3151 3149 3148 3147 3146 3145 3144 3144 3142 3142 3141 3140 3140 3135 3128 3130 3132 3130 3129 3128 3127 3125 3124 3122 3121 3120 3119 3117 3117 3115 3114
3182 3183 3183 3183 3183 3183 3183 3183 3183 3183 3182 3182 3182 3181 3180 3180 3179 3179 3178 3178 3177 3176 3176 3175 3174 3173 3173 3172 3172 3172 3171 3171 3170 3170 3169 3168 3168 3167 3167 3166 3166 3165 3165 3164 3163 3163 3162 3161 3160 3159 3158 3156 3155 3154 3153 3152 3150 3149 3148 3146 3145 3144 3143 3142 3142 3141 3140 3138 3137 3136 3131 3126 3127 3128 3127 3125 3124 3122 3120 3119 3118 3117 3116 3115 3114 3113 3112 3111
3180 3180 3180 3181 3181 3181 3181 3181 3180 3180 3180 3180 3180 3179 3179 3178 3177 3177 3176 3176 3175 3174 3174 3173 3172 3171 3170 3170 3170 3170 3169 3169 3168 3167 3167 3166 3165 3165 3164 3164 3164 3163 3163 3162 3161 3161 3160 3160 3159 3157 3156 3155 3154 3153 3151 3150 3148 3147 3146 3144 3143 3142 3141 3140 3139 3139 3138 3136 3134 3132 3128 3125 3126 3126 3124 3122 3121 3119 3116 3115 3115 3113 3111 3111 3110 3109 3108 3107
3177 3177 3178 3178 3178 3178 3178 3178 3178 3178 3178 3177 3177 3177 3176 3175 3175 3174 3174 3173 3172 3172 3171 3170 3170 3169 3168 3168 3167 3167 3167 3166 3165 3165 3164 3163 3162 3162 3162 3161 3161 3161 3160 3160 3159 3159 3158 3158 3157 3156 3155 3154 3153 3152 3150 3148 3147 3145 3144 3142 3141 3140 3138 3137 3137 3136 3135 3133 3131 3129 3126 3124 3124 3124 3122 3120 3118 3115 3113 3112 3111 3109 3108 3107 3106 3105 3105 3104
3174 3175 3175 3175 3175 3175 3176 3176 3176 3175 3175 3175 3174 3174 3174 3173 3172 3171 3171 3171 3170 3170 3169 3168 3168 3167 3166 3165 3165 3164 3164 3163 3163 3162 3161 3160 3159 3159 3159 3159 3159 3158 3158 3157 3157 3157 3156 3155 3155 3154 3153 3152 3151 3150 3149 3147 3145 3144 3142 3140 3138 3137 3135 3135 3135 3133 3131 3129 3127 3125 3123 3122 3121 3121 3119 3116 3115 3112 3109 3109 3107 3106 3104 3103 3102 3102 3101 3100
3171 3172 3172 3172 3172 3172 3172 3173 3173 3172 3172 3172 3172 3171 3171 3170 3170 3169 3168 3168 3167 3167 3167 3166 3165 3165 3164 3163 3162 3162 3161 3160 3160 3159 3158 3157 3156 3156 3155 3155 3155 3155 3155 3155 3155 3155 3154 3153 3153 3151 3150 3150 3149 3148 3146 3145 3144 3142 3140 3138 3137 3134 3133 3133 3132 3130 3128 3124 3122 3122 3120 3118 3117 3117 3116 3113 3109 3107 3105 3104 3103 3101 3100 3099 3098 3097 3096 3096
3168 3169 3169 3169 3169 3169 3169 3169 3169 3169 3169 3169 3169 3168 3168 3167 3166 3165 3164 3165 3165 3164 3164 3163 3163 3162 3161 3160 3159 3158 3158 3157 3156 3156 3154 3153 3153 3152 3152 3152 3152 3152 3153 3153 3153 3152 3151 3151 3151 3150 3148 3147 3146 3145 3144 3143 3141 3139 3138 3136 3134 3132 3130 3131 3130 3127 3126 3121 3117 3118 3115 3113 3114 3112 3111 3109 3105 3103 3101 3100 3098 3096 3096 3095 3094 3093 3093 3092
3165 3165 3166 3166 3166 3166 3166 3166 3167 3166 3166 3166 3166 3165 3165 3164 3163 3162 3161 3160 3161 3161 3161 3160 3160 3159 3158 3157 3157 3156 3154 3154 3153 3152 3151 3150 3150 3149 3149 3150 3149 3150 3150 3151 3150 3150 3149 3148 3148 3148 3146 3145 3144 3142 3141 3140 3139 3137 3135 3133 3131 3130 3127 3127 3127 3125 3123 3118 3113 3113 3108 3106 3108 3107 3106 3104 3101 3099 3097 3095 3094 3092 3091 3090 3090 3089 3089 3089
3162 3162 3163 3163 3163 3163 3163 3163 3163 3163 3163 3163 3163 3163 3162 3161 3160 3159 3157 3155 3155 3157 3157 3156 3156 3156 3155 3154 3154 3153 3151 3151 3150 3149 3149 3148 3147 3147 3147 3147 3147 3147 3148 3148 3148 3147 3146 3145 3146 3145 3144 3143 3141 3140 3139 3137 3137 3135 3133 3130 3128 3128 3126 3123 3123 3122 3121 3117 3111 3108 3100 3097 3101 3102 3101 3100 3097 3096 3094 3091 3090 3088 3087 3087 3086 3086 3085 3084
3158 3159 3159 3159 3160 3160 3160 3160 3160 3160 3160 3160 3160 3160 3159 3158 3157 3156 3154 3151 3149 3151 3152 3153 3152 3151 3151 3151 3150 3149 3148 3148 3147 3146 3146 3145 3145 3145 3145 3145 3145 3145 3145 3145 3145 3144 3144 3143 3143 3142 3142 3140 3139 3137 3136 3135 3134 3132 3130 3128 3125 3126 3125 3121 3119 3118 3116 3115 3112 3105 3092 3085 3091 3095 3095 3096 3093 3092 3090 3087 3085 3084 3083 3083 3082 3081 3080 3078
3155 3155 3156 3156 3156 3156 3157 3157 3157 3157 3157 3157 3157 3157 3156 3155 3154 3153 3152 3148 3144 3146 3148 3148 3148 3147 3148 3148 3147 3146 3145 3145 3145 3144 3144 3143 3143 3143 3142 3143 3142 3142 3143 3143 3142 3141 3141 3141 3140 3140 3139 3138 3136 3134 3134 3132 3130 3129 3127 3126 3124 3123 3122 3120 3118 3114 3111 3110 3110 3108 3095 3079 3081 3088 3089 3090 3089 3088 3087 3083 3082 3081 3079 3079 3078 3077 3076 3074
3151 3151 3152 3153 3153 3153 3153 3153 3154 3154 3154 3154 3154 3153 3153 3152 3151 3150 3149 3144 3140 3141 3144 3143 3143 3143 3144 3144 3144 3143 3143 3143 3142 3142 3142 3141 3141 3140 3140 3140 3140 3140 3140 3140 3140 3138 3137 3137 3137 3137 3135 3134 3133 3131 3131 3130 3127 3125 3124 3123 3122 3120 3119 3117 3115 3113 3109 3105 3106 3111 3104 3082 3073 3079 3084 3086 3085 3084 3083 3080 3079 3078 3076 3075 3075 3073 3072 3071
3147 3147 3148 3149 3149 3150 3149 3149 3151 3150 3150 3151 3150 3150 3150 3149 3149 3147 3147 3143 3135 3136 3140 3139 3139 3140 3140 3141 3141 3141 3140 3140 3140 3139 3139 3139 3138 3139 3138 3137 3138 3137 3138 3138 3136 3135 3134 3134 3134 3133 3132 3131 3129 3128 3129 3127 3125 3122 3121 3121 3120 3118 3117 3114 3113 3111 3107 3102 3101 3105 3106 3089 3067 3068 3078 3081 3081 3080 3079 3078 3076 3074 3073 3072 3071 3069 3068 3068
3142 3143 3144 3144 3145 3146 3145 3146 3147 3147 3147 3147 3146 3147 3146 3146 3146 3145 3147 3142 3132 3132 3135 3135 3136 3136 3137 3138 3138 3138 3137 3137 3137 3136 3136 3136 3135 3136 3135 3135 3135 3134 3135 3134 3131 3131 3132 3130 3130 3130 3128 3127 3125 3126 3125 3124 3122 3119 3119 3118 3116 3116 3114 3112 3110 3108 3105 3100 3095 3094 3102 3093 3065 3060 3073 3075 3075 3076 3074 3074 3073 3071 3070 3068 3066 3065 3064 3064
3137 3138 3139 3140 3140 3141 3142 3142 3142 3143 3143 3143 3143 3143 3143 3143 3143 3143 3145 3139 3129 3129 3132 3133 3133 3133 3134 3134 3134 3134 3134 3134 3134 3133 3133 3133 3132 3133 3132 3132 3133 3131 3131 3130 3128 3128 3128 3127 3126 3126 3124 3123 3123 3123 3121 3121 3119 3117 3116 3115 3114 3113 3111 3110 3107 3105 3104 3098 3090 3088 3096 3092 3064 3053 3067 3071 3070 3071 3069 3069 3069 3066 3065 3063 3062 3062 3061 3060
3132 3133 3135 3135 3135 3137 3137 3137 3138 3139 3139 3139 3139 3139 3140 3140 3139 3141 3139 3131 3125 3127 3129 3129 3130 3130 3130 3130 3130 3130 3130 3130 3130 3130 3130 3130 3129 3130 3129 3130 3130 3128 3127 3126 3124 3124 3123 3122 3122 3121 3120 3119 3119 3119 3118 3117 3116 3114 3114 3112 3112 3111 3108 3107 3103 3102 3103 3091 3083 3084 3088 3090 3070 3051 3056 3064 3066 3067 3065 3064 3063 3061 3060 3058 3057 3057 3056 3055
3127 3128 3130 3130 3130 3132 3132 3133 3134 3134 3135 3135 3135 3136 3136 3135 3136 3135 3128 3122 3123 3123 3124 3126 3126 3126 3126 3126 3126 3126 3126 3127 3127 3127 3126 3126 3126 3126 3126 3126 3127 3125 3123 3122 3121 3119 3118 3117 3117 3117 3117 3116 3115 3115 3114 3114 3113 3112 3112 3110 3110 3109 3106 3104 3099 3101 3100 3085 3079 3082 3084 3086 3071 3049 3050 3058 3060 3063 3061 3059 3058 3057 3055 3054 3053 3052 3051 3050
3122 3123 3124 3124 3125 3127 3128 3128 3129 3130 3130 3130 3131 3131 3132 3132 3128 3122 3118 3120 3122 3118 3119 3122 3122 3122 3123 3122 3122 3122 3123 3123 3123 3123 3123 3122 3122 3121 3122 3122 3123 3122 3119 3117 3117 3115 3112 3111 3112 3112 3112 3111 3111 3111 3110 3110 3109 3109 3109 3109 3110 3109 3107 3102 3097 3097 3092 3082 3078 3080 3082 3076 3057 3043 3048 3053 3054 3057 3056 3054 3053 3052 3050 3049 3048 3047 3046 3045
3116 3117 3118 3119 3120 3121 3123 3124 3124 3124 3124 3126 3127 3126 3128 3125 3113 3108 3114 3119 3118 3114 3116 3119 3118 3119 3119 3117 3118 3119 3119 3118 3119 3119 3119 3118 3117 3116 3118 3118 3119 3119 3115 3113 3113 3111 3107 3105 3106 3107 3106 3106 3106 3106 3106 3105 3106 3106 3105 3107 3107 3109 3110 3103 3096 3092 3084 3078 3076 3079 3080 3064 3042 3038 3043 3045 3049 3052 3050 3049 3049 3047 3045 3044 3043 3042 3040 3039
3109 3111 3112 3113 3114 3116 3117 3118 3119 3119 3120 3121 3121 3122 3121 3113 3101 3102 3110 3112 3113 3113 3113 3115 3115 3114 3114 3113 3114 3115 3115 3115 3114 3115 3114 3113 3111 3110 3111 3112 3114 3115 3113 3112 3111 3108 3105 3099 3100 3102 3101 3101 3101 3101 3103 3103 3103 3103 3102 3104 3102 3104 3105 3098 3092 3087 3080 3075 3073 3075 3072 3053 3036 3034 3036 3038 3043 3046 3044 3044 3044 3042 3041 3039 3038 3037 3036 3034
3103 3104 3106 3107 3109 3110 3112 3113 3112 3114 3115 3114 3116 3115 3106 3096 3094 3099 3103 3105 3110 3110 3109 3110 3110 3109 3109 3109 3109 3110 3112 3111 3110 3110 3109 3107 3105 3104 3104 3107 3110 3110 3110 3110 3108 3105 3101 3095 3095 3098 3097 3097 3098 3098 3100 3100 3100 3100 3099 3100 3097 3096 3098 3095 3090 3085 3083 3080 3070 3064 3056 3040 3032 3030 3030 3035 3037 3038 3040 3039 3039 3038 3035 3035 3034 3032 3032 3029
3098 3098 3099 3100 3103 3105 3106 3106 3106 3108 3108 3109 3109 3100 3087 3085 3090 3094 3097 3101 3105 3105 3105 3105 3104 3104 3104 3103 3104 3105 3107 3107 3105 3105 3103 3101 3100 3098 3098 3101 3104 3104 3105 3106 3105 3102 3098 3091 3091 3093 3093 3094 3094 3095 3096 3096 3096 3096 3094 3093 3092 3092 3093 3092 3089 3084 3087 3085 3066 3053 3044 3033 3030 3024 3019 3028 3030 3030 3035 3033 3033 3033 3030 3031 3030 3028 3027 3025
3092 3092 3092 3094 3098 3100 3099 3099 3101 3101 3101 3102 3097 3083 3075 3080 3085 3089 3093 3096 3099 3101 3102 3100 3098 3098 3097 3096 3096 3099 3102 3102 3100 3099 3098 3097 3094 3090 3092 3096 3098 3098 3100 3101 3101 3099 3096 3090 3088 3089 3089 3090 3091 3091 3092 3092 3092 3090 3089 3089 3089 3089 3089 3089 3090 3085 3087 3085 3064 3049 3043 3033 3030 3021 3011 3019 3024 3023 3028 3028 3027 3028 3025 3025 3025 3022 3022 3019
3086 3086 3085 3087 3093 3095 3094 3094 3094 3094 3096 3094 3083 3072 3071 3075 3078 3083 3089 3091 3094 3097 3096 3094 3092 3092 3091 3090 3090 3093 3096 3095 3094 3094 3093 3092 3088 3084 3087 3091 3092 3093 3095 3097 3097 3094 3094 3090 3086 3085 3085 3085 3087 3087 3087 3086 3086 3085 3085 3086 3085 3085 3084 3085 3087 3083 3082 3081 3062 3048 3044 3028 3020 3019 3012 3015 3019 3018 3022 3023 3021 3022 3021 3020 3019 3017 3016 3014
3081 3079 3078 3081 3088 3089 3088 3088 3088 3090 3089 3080 3070 3067 3067 3068 3072 3079 3084 3087 3089 3090 3088 3087 3087 3087 3085 3084 3086 3088 3089 3088 3088 3089 3087 3086 3082 3080 3083 3086 3087 3089 3090 3092 3091 3089 3091 3090 3084 3080 3079 3081 3081 3080 3079 3079 3081 3082 3082 3082 3080 3079 3079 3078 3080 3076 3073 3074 3061 3050 3045 3020 3003 3012 3013 3010 3013 3014 3016 3017 3015 3016 3015 3014 3014 3012 3010 3009
3075 3073 3072 3076 3081 3082 3083 3083 3082 3082 3076 3067 3063 3063 3061 3063 3068 3074 3079 3082 3082 3081 3080 3080 3082 3082 3079 3079 3080 3081 3082 3082 3082 3083 3081 3079 3076 3075 3078 3080 3082 3084 3085 3086 3087 3086 3087 3087 3081 3077 3075 3075 3072 3070 3071 3073 3077 3078 3077 3076 3073 3074 3076 3073 3071 3069 3066 3068 3060 3054 3049 3017 2992 3003 3009 3005 3008 3009 3010 3012 3009 3010 3009 3008 3008 3006 3005 3004
3069 3067 3066 3070 3074 3076 3077 3075 3073 3071 3064 3058 3059 3058 3057 3061 3064 3067 3071 3074 3074 3074 3074 3074 3075 3074 3073 3074 3074 3074 3077 3076 3075 3076 3073 3072 3071 3070 3073 3075 3076 3079 3080 3081 3081 3080 3081 3080 3077 3072 3068 3065 3063 3065 3069 3070 3073 3073 3071 3069 3067 3069 3072 3069 3066 3062 3060 3060 3052 3051 3050 3016 2988 2997 3003 3000 3003 3004 3006 3007 3004 3004 3004 3003 3003 3001 3000 2999
3061 3059 3060 3064 3066 3068 3070 3067 3065 3063 3055 3051 3053 3055 3056 3057 3058 3060 3063 3066 3066 3067 3068 3067 3066 3066 3066 3066 3068 3070 3072 3070 3068 3068 3065 3064 3065 3065 3067 3070 3071 3073 3075 3075 3075 3075 3076 3075 3071 3065 3061 3060 3060 3063 3065 3066 3068 3069 3065 3063 3063 3065 3063 3061 3058 3053 3053 3052 3044 3050 3049 3008 2982 2994 2999 2996 2999 2999 3002 3002 2998 2999 3000 2999 2998 2996 2995 2994
3052 3053 3056 3058 3058 3060 3061 3057 3057 3054 3047 3047 3051 3052 3052 3052 3052 3053 3056 3058 3059 3060 3060 3059 3057 3058 3059 3060 3063 3065 3065 3064 3061 3060 3059 3059 3058 3059 3063 3065 3066 3068 3069 3068 3068 3070 3071 3069 3065 3060 3058 3057 3057 3058 3059 3060 3063 3061 3057 3056 3057 3055 3052 3051 3051 3049 3049 3043 3039 3052 3041 2994 2977 2993 2994 2991 2995 2996 2997 2996 2993 2994 2994 2994 2994 2992 2991 2990
3045 3047 3050 3051 3050 3049 3047 3045 3045 3043 3042 3046 3047 3046 3047 3047 3046 3047 3048 3049 3051 3052 3052 3050 3051 3053 3054 3057 3058 3058 3059 3059 3055 3053 3055 3053 3051 3053 3057 3059 3061 3061 3061 3060 3062 3064 3064 3062 3061 3059 3056 3055 3053 3052 3052 3053 3054 3051 3047 3049 3048 3047 3048 3049 3047 3048 3044 3034 3037 3048 3021 2980 2980 2993 2988 2988 2993 2992 2992 2991 2988 2989 2989 2989 2989 2987 2986 2984
3040 3039 3040 3042 3040 3036 3034 3035 3038 3038 3039 3041 3039 3040 3042 3040 3040 3042 3043 3042 3044 3045 3045 3045 3047 3049 3051 3053 3052 3051 3053 3053 3050 3049 3048 3046 3046 3048 3051 3054 3055 3054 3054 3055 3057 3058 3056 3055 3054 3052 3051 3049 3043 3041 3042 3043 3044 3043 3040 3041 3041 3041 3043 3041 3042 3044 3034 3025 3033 3031 2997 2975 2984 2990 2984 2987 2989 2987 2988 2985 2984 2984 2984 2984 2983 2982 2981 2979
3032 3030 3030 3031 3029 3025 3025 3029 3031 3030 3032 3034 3032 3033 3035 3031 3032 3037 3037 3034 3034 3037 3039 3040 3043 3045 3045 3046 3046 3045 3045 3046 3045 3043 3040 3039 3040 3042 3045 3048 3048 3049 3049 3050 3051 3052 3050 3048 3045 3041 3040 3037 3031 3032 3036 3037 3038 3037 3034 3034 3035 3035 3036 3035 3036 3033 3022 3020 3023 3008 2987 2981 2980 2977 2981 2987 2986 2983 2982 2980 2980 2980 2979 2978 2978 2976 2975 2973
3022 3019 3019 3020 3019 3017 3016 3019 3020 3020 3023 3026 3025 3025 3025 3024 3025 3028 3027 3024 3026 3031 3033 3034 3036 3036 3036 3037 3039 3038 3037 3038 3038 3035 3033 3034 3036 3038 3041 3042 3042 3043 3043 3044 3046 3045 3043 3039 3036 3034 3032 3029 3027 3030 3033 3033 3033 3032 3029 3028 3027 3027 3029 3028 3024 3017 3016 3020 3008 2989 2989 2989 2971 2965 2978 2986 2983 2980 2977 2976 2976 2975 2974 2973 2972 2971 2969 2968
3012 3010 3011 3012 3011 3008 3006 3007 3009 3013 3017 3019 3018 3018 3018 3017 3017 3016 3016 3018 3020 3024 3026 3025 3024 3024 3026 3030 3032 3031 3032 3032 3029 3025 3026 3029 3031 3033 3035 3035 3035 3036 3037 3039 3039 3038 3037 3031 3027 3029 3028 3025 3024 3026 3028 3029 3028 3027 3025 3020 3017 3020 3021 3017 3010 3007 3013 3013 2992 2979 2991 2987 2963 2960 2975 2981 2980 2977 2973 2972 2972 2969 2969 2967 2966 2965 2963 2963
3004 3004 3004 3003 3001 2999 2999 3001 3004 3006 3009 3011 3011 3011 3011 3008 3006 3007 3010 3013 3013 3014 3016 3014 3012 3015 3018 3023 3025 3024 3024 3022 3016 3016 3020 3023 3026 3028 3028 3029 3029 3029 3032 3033 3031 3032 3030 3023 3022 3025 3022 3019 3018 3018 3022 3025 3022 3021 3017 3009 3007 3013 3013 3006 3002 3002 3005 2999 2985 2983 2988 2974 2955 2959 2971 2973 2973 2971 2968 2967 2966 2964 2963 2962 2961 2960 2958 2958
2997 2997 2998 2995 2992 2993 2995 2997 2997 2996 2998 3003 3002 3001 3000 2998 2998 3002 3004 3004 3003 3004 3006 3004 3004 3010 3014 3017 3019 3015 3011 3011 3010 3013 3018 3019 3021 3023 3022 3022 3023 3024 3025 3025 3024 3025 3023 3017 3019 3021 3017 3013 3011 3012 3018 3019 3016 3016 3009 2995 2995 3005 3005 2998 2995 2996 2994 2988 2982 2982 2979 2962 2950 2958 2966 2964 2963 2964 2962 2961 2960 2959 2958 2957 2956 2954 2953 2953
2992 2992 2994 2992 2986 2986 2988 2989 2989 2988 2988 2990 2988 2988 2990 2989 2992 2997 2996 2995 2996 2997 2997 2998 3001 3008 3011 3012 3011 3004 3002 3007 3009 3012 3015 3014 3015 3018 3017 3017 3019 3019 3017 3017 3016 3016 3016 3014 3014 3017 3013 3006 3004 3010 3013 3011 3013 3012 2994 2978 2983 2994 2992 2987 2986 2986 2984 2979 2976 2976 2970 2956 2949 2955 2959 2956 2955 2955 2953 2953 2954 2953 2953 2952 2950 2948 2948 2948
2987 2986 2988 2988 2981 2980 2983 2983 2982 2980 2976 2977 2977 2978 2982 2985 2990 2995 2991 2988 2990 2991 2993 2996 2998 3002 3003 3001 2999 2996 3000 3006 3007 3009 3011 3009 3009 3012 3012 3011 3013 3011 3010 3011 3010 3009 3010 3009 3009 3011 3008 3001 3003 3006 3004 3008 3012 2997 2971 2964 2974 2981 2979 2978 2977 2975 2973 2972 2969 2965 2958 2950 2949 2952 2952 2949 2948 2947 2945 2947 2947 2947 2947 2946 2944 2943 2943 2942